#�ϑ�����,���ϕ���,���ϕ���,�ő啗��,�ő啗����������,�ő�u�ԕ���,�ő�u�ԕ�����������
#(�N����),(m/s)   ,(16����),(m/s)   ,(16����)        ,(m/s)       ,(16����)            
2013/7/16 13:17,0.8,12,0.8,13,1.8,10
2013/7/16 13:18,1.5,9,1.5,9,3.3,8
2013/7/16 13:19,1.9,9,2,9,3.9,9
2013/7/16 13:20,1.6,9,1.9,9,1.4,9
2013/7/16 13:21,1.6,9,1.6,9,4.4,9
2013/7/16 13:22,1.7,9,1.7,9,4.3,8
2013/7/16 13:23,1.6,9,1.6,9,3.3,9
2013/7/16 13:24,1.7,9,1.7,9,4.2,10
2013/7/16 13:25,1.7,9,1.7,9,3.6,10
2013/7/16 13:26,1.7,9,1.7,9,3.2,9
2013/7/16 13:27,1.6,9,1.7,9,1.1,15
2013/7/16 13:28,1.6,10,1.7,9,3,9
2013/7/16 13:29,1.6,10,1.6,9,3.3,11
2013/7/16 13:30,1.6,10,1.6,9,2.6,10
2013/7/16 13:31,1.8,10,1.8,10,5.1,9
2013/7/16 13:32,1.7,11,1.8,10,2.2,12
2013/7/16 13:33,1.8,11,1.8,10,4.3,11
2013/7/16 13:34,1.8,11,1.8,10,3,10
2013/7/16 13:35,1.7,11,1.8,10,2.7,8
2013/7/16 13:36,1.8,11,1.8,10,2.7,12
2013/7/16 13:37,1.9,11,1.9,11,2.2,11
2013/7/16 13:38,2,11,2,11,3.1,13
2013/7/16 13:39,1.9,11,2,11,2.2,12
2013/7/16 13:40,1.8,12,1.9,11,1.8,13
2013/7/16 13:41,1.7,12,1.8,11,2.7,12
2013/7/16 13:42,1.6,12,1.7,11,1.8,10
2013/7/16 13:43,1.7,11,1.7,11,6.5,9
2013/7/16 13:44,1.8,11,1.8,11,4.2,10
2013/7/16 13:45,1.8,11,1.8,11,4.4,9
2013/7/16 13:46,1.8,11,1.8,11,4.4,9
2013/7/16 13:47,1.8,11,1.8,11,3,9
2013/7/16 13:48,1.9,11,1.9,11,5.4,10
2013/7/16 13:49,2,10,2,10,5.5,10
2013/7/16 13:50,2.2,10,2.2,10,6,9
2013/7/16 13:51,2.3,9,2.3,10,5,9
2013/7/16 13:52,2.6,9,2.6,9,4.2,9
2013/7/16 13:53,2.6,9,2.6,9,4.5,9
2013/7/16 13:54,2.7,9,2.7,9,4.4,8
2013/7/16 13:55,2.8,9,2.8,9,5.1,9
2013/7/16 13:56,2.8,9,2.8,9,3.1,8
2013/7/16 13:57,2.9,9,2.9,9,3.7,8
2013/7/16 13:58,2.7,9,2.8,9,2.9,8
2013/7/16 13:59,2.6,8,2.7,9,3.1,9
2013/7/16 14:00,2.4,8,2.6,9,2.5,9
2013/7/16 14:01,2.3,8,2.4,9,3.5,7
2013/7/16 14:02,2.2,8,2.3,9,2.5,7
2013/7/16 14:03,2,8,2.2,9,2.4,7
2013/7/16 14:04,1.9,8,2,9,3,8
2013/7/16 14:05,1.9,8,1.9,9,4.5,8
2013/7/16 14:06,1.9,8,1.9,9,4.7,9
2013/7/16 14:07,1.9,8,1.9,9,3.2,8
2013/7/16 14:08,1.9,8,1.9,9,2.9,8
2013/7/16 14:09,1.8,8,1.9,8,2.6,9
2013/7/16 14:10,1.9,8,1.9,8,3.6,9
2013/7/16 14:11,1.9,8,2,8,3.6,9
2013/7/16 14:12,1.8,9,1.9,8,3.9,9
2013/7/16 14:13,1.8,9,1.8,8,1.5,9
2013/7/16 14:14,1.7,10,1.8,8,2.7,13
2013/7/16 14:15,1.6,10,1.7,8,2.2,13
2013/7/16 14:16,1.5,10,1.6,8,1.4,13
2013/7/16 14:17,1.3,10,1.4,8,2,8
2013/7/16 14:18,1.4,10,1.4,8,2.7,8
2013/7/16 14:19,1.4,10,1.4,8,2.6,7
2013/7/16 14:20,1.4,9,1.5,8,2.7,7
2013/7/16 14:21,1.4,9,1.4,8,2.2,9
2013/7/16 14:22,1.3,9,1.4,9,3.2,8
2013/7/16 14:23,1.4,9,1.4,9,3,9
2013/7/16 14:24,1.4,9,1.4,10,2.9,10
2013/7/16 14:25,1.4,8,1.4,10,2.1,11
2013/7/16 14:26,1.6,8,1.6,8,4.7,8
2013/7/16 14:27,1.7,8,1.7,8,3.7,9
2013/7/16 14:28,1.6,8,1.7,8,3.3,8
2013/7/16 14:29,1.7,9,1.7,8,5.4,7
2013/7/16 14:30,1.8,9,1.8,9,4.9,9
2013/7/16 14:31,1.9,9,1.9,9,5.1,9
2013/7/16 14:32,2.1,9,2.1,9,4.4,10
2013/7/16 14:33,2.1,9,2.1,9,3.3,11
2013/7/16 14:34,2.1,10,2.1,9,1.9,11
2013/7/16 14:35,2.1,10,2.1,9,2.9,9
2013/7/16 14:36,2,9,2.2,9,1.6,8
2013/7/16 14:37,1.8,9,2,9,0.6,9
2013/7/16 14:38,1.7,9,1.8,9,0.5,8
2013/7/16 14:39,1.5,10,1.7,9,0.8,16
2013/7/16 14:40,1.3,10,1.5,9,1,16
2013/7/16 14:41,1,10,1.3,9,0.8,5
2013/7/16 14:42,0.8,10,1,9,0.6,4
2013/7/16 14:43,0.6,10,0.8,9,0.3,16
2013/7/16 14:44,0.5,9,0.5,9,1.4,7
2013/7/16 14:45,0.4,10,0.5,9,1.6,12
2013/7/16 14:46,0.5,10,0.5,9,2.6,6
2013/7/16 14:47,0.5,11,0.5,9,1.8,8
2013/7/16 14:48,0.6,12,0.6,9,3.6,8
2013/7/16 14:49,0.9,8,0.9,10,4.9,8
2013/7/16 14:50,1,8,1,10,4.5,8
2013/7/16 14:51,1.2,8,1.2,8,3.1,8
2013/7/16 14:52,1.3,8,1.3,8,2.5,8
2013/7/16 14:53,1.4,8,1.4,8,2.2,6
2013/7/16 14:54,1.4,8,1.4,8,1.8,7
2013/7/16 14:55,1.5,8,1.5,8,2.4,7
2013/7/16 14:56,1.5,8,1.5,8,2.5,7
2013/7/16 14:57,1.5,8,1.5,8,1.8,8
2013/7/16 14:58,1.4,8,1.5,8,1.4,8
2013/7/16 14:59,1.2,8,1.4,8,2,8
2013/7/16 15:00,1.2,8,1.2,8,3.1,8
2013/7/16 15:01,1.3,8,1.3,8,4.7,8
2013/7/16 15:02,1.4,8,1.4,8,4.7,8
2013/7/16 15:03,1.5,8,1.5,8,3.8,10
2013/7/16 15:04,1.7,8,1.7,8,4.1,8
2013/7/16 15:05,1.8,8,1.8,8,4.1,8
2013/7/16 15:06,1.9,9,1.9,9,4.5,10
2013/7/16 15:07,2.2,9,2.2,8,5.4,8
2013/7/16 15:08,2.5,9,2.5,9,5.6,9
2013/7/16 15:09,2.7,9,2.7,9,4.8,9
2013/7/16 15:10,2.8,9,2.8,9,3.5,10
2013/7/16 15:11,2.7,9,2.8,9,4.3,9
2013/7/16 15:12,2.6,9,2.7,9,1.8,11
2013/7/16 15:13,2.5,9,2.6,9,2.2,11
2013/7/16 15:14,2.5,9,2.5,9,2.9,10
2013/7/16 15:15,2.5,10,2.5,9,3.1,10
2013/7/16 15:16,2.4,10,2.5,9,3.3,11
2013/7/16 15:17,2.2,10,2.4,9,2.6,11
2013/7/16 15:18,2,10,2.2,9,2.7,11
2013/7/16 15:19,1.9,11,2,9,2.5,10
2013/7/16 15:20,1.8,11,1.9,9,2.1,11
2013/7/16 15:21,1.7,11,1.8,9,2.9,10
2013/7/16 15:22,1.6,11,1.7,9,1.9,9
2013/7/16 15:23,1.6,11,1.6,9,2.2,10
2013/7/16 15:24,1.5,11,1.6,9,0.8,14
2013/7/16 15:25,1.4,11,1.4,10,2.5,12
2013/7/16 15:26,1.4,11,1.4,10,2.2,11
2013/7/16 15:27,1.4,11,1.4,10,2.4,12
2013/7/16 15:28,1.3,11,1.4,11,1.3,11
2013/7/16 15:29,1.2,11,1.3,11,2.1,9
2013/7/16 15:30,1.2,11,1.2,11,1.5,9
2013/7/16 15:31,1.1,11,1.1,11,0.6,8
2013/7/16 15:32,1,11,1,11,0.8,12
2013/7/16 15:33,1.1,11,1.1,11,2.4,13
2013/7/16 15:34,1.2,11,1.2,11,2.2,13
2013/7/16 15:35,1.1,12,1.1,11,1.9,13
2013/7/16 15:36,1.1,12,1.1,11,2.2,12
2013/7/16 15:37,1,12,1.1,11,2.2,13
2013/7/16 15:38,1,12,1,12,1,16
2013/7/16 15:39,0.9,13,1,12,0.8,16
2013/7/16 15:40,0.9,13,0.9,11,0.6,9
2013/7/16 15:41,0.9,13,0.9,11,0.5,13
2013/7/16 15:42,0.9,13,0.9,11,1.5,13
2013/7/16 15:43,0.9,13,0.9,11,1.6,9
2013/7/16 15:44,0.9,13,0.9,11,2,14
2013/7/16 15:45,0.8,14,0.9,12,1.6,13
2013/7/16 15:46,0.8,14,0.8,12,2,12
2013/7/16 15:47,0.8,13,0.8,12,2,12
2013/7/16 15:48,0.8,13,0.8,12,1.5,12
2013/7/16 15:49,0.9,13,0.9,12,1.6,9
2013/7/16 15:50,0.9,13,0.9,13,1.4,12
2013/7/16 15:51,1,12,1,13,1.4,11
2013/7/16 15:52,1,12,1,13,0.8,10
2013/7/16 15:53,1,12,1,13,2.1,10
2013/7/16 15:54,0.9,12,1,13,1.9,10
2013/7/16 15:55,0.9,12,0.9,13,1.4,10
2013/7/16 15:56,0.8,11,0.9,13,1.8,12
2013/7/16 15:57,0.8,11,0.8,13,3.2,9
2013/7/16 15:58,0.9,11,0.9,13,3.2,10
2013/7/16 15:59,0.9,11,0.9,13,2.2,9
2013/7/16 16:00,0.9,11,0.9,13,2.9,9
2013/7/16 16:01,1.1,10,1.1,10,3.2,8
2013/7/16 16:02,1.2,10,1.2,10,3.5,10
2013/7/16 16:03,1.3,10,1.3,10,2.6,9
2013/7/16 16:04,1.4,10,1.4,10,2.7,9
2013/7/16 16:05,1.5,9,1.5,9,2.6,9
2013/7/16 16:06,1.6,9,1.6,9,1.8,8
2013/7/16 16:07,1.5,9,1.6,9,0.9,10
2013/7/16 16:08,1.4,9,1.5,9,2,7
2013/7/16 16:09,1.5,9,1.5,9,3.5,7
2013/7/16 16:10,1.6,9,1.6,9,2.1,8
2013/7/16 16:11,1.4,8,1.5,9,1.3,8
2013/7/16 16:12,1.3,8,1.4,9,1.5,6
2013/7/16 16:13,1.2,8,1.3,9,1.6,5
2013/7/16 16:14,1.1,7,1.2,9,1.4,7
2013/7/16 16:15,1,7,1.1,9,1.5,6
2013/7/16 16:16,1.1,6,1.1,9,2.1,7
2013/7/16 16:17,1.1,6,1.1,9,2,4
2013/7/16 16:18,1.1,6,1.1,9,1,5
2013/7/16 16:19,1,6,1.1,9,1.3,7
2013/7/16 16:20,0.9,6,1,8,1.8,7
2013/7/16 16:21,1,6,1,8,2.5,7
2013/7/16 16:22,1.1,6,1.1,8,2.7,6
2013/7/16 16:23,1.2,6,1.2,8,2.5,7
2013/7/16 16:24,1.2,6,1.2,6,3.2,8
2013/7/16 16:25,1.4,7,1.4,7,2.7,8
2013/7/16 16:26,1.4,7,1.4,7,2.6,8
2013/7/16 16:27,1.4,7,1.4,7,1.5,7
2013/7/16 16:28,1.4,7,1.4,7,2.2,6
2013/7/16 16:29,1.5,7,1.5,7,2.9,5
2013/7/16 16:30,1.6,7,1.6,7,2.9,5
2013/7/16 16:31,1.8,7,1.8,7,3.5,7
2013/7/16 16:32,1.7,7,1.8,7,2.9,6
2013/7/16 16:33,1.7,7,1.7,7,2.1,8
2013/7/16 16:34,1.7,7,1.7,7,2.7,7
2013/7/16 16:35,1.6,7,1.7,7,1.8,8
2013/7/16 16:36,1.6,7,1.6,7,2.4,9
2013/7/16 16:37,1.6,7,1.6,7,2.1,6
2013/7/16 16:38,1.6,7,1.6,7,2,8
2013/7/16 16:39,1.5,7,1.5,7,2.6,8
2013/7/16 16:40,1.5,8,1.5,7,2.7,7
2013/7/16 16:41,1.4,8,1.5,7,3,7
2013/7/16 16:42,1.4,8,1.4,7,2.5,6
2013/7/16 16:43,1.5,8,1.5,7,3.3,7
2013/7/16 16:44,1.5,8,1.5,7,2.9,8
2013/7/16 16:45,1.6,7,1.6,7,2.5,6
2013/7/16 16:46,1.5,7,1.6,7,2.6,7
2013/7/16 16:47,1.6,7,1.6,7,2.5,7
2013/7/16 16:48,1.6,7,1.6,7,2.1,5
2013/7/16 16:49,1.6,7,1.6,7,2.4,8
2013/7/16 16:50,1.6,7,1.6,7,2.6,8
2013/7/16 16:51,1.5,7,1.6,7,1.9,10
2013/7/16 16:52,1.6,8,1.6,7,3,9
2013/7/16 16:53,1.5,7,1.6,7,2.2,9
2013/7/16 16:54,1.4,7,1.5,7,1.6,5
2013/7/16 16:55,1.4,7,1.4,7,2.1,8
2013/7/16 16:56,1.3,7,1.4,7,1.5,6
2013/7/16 16:57,1.2,7,1.3,7,2.6,6
2013/7/16 16:58,1.3,7,1.3,7,2.9,6
2013/7/16 16:59,1.4,7,1.4,7,2.2,7
2013/7/16 17:00,1.3,7,1.4,7,2.7,7
2013/7/16 17:01,1.3,7,1.4,8,2.1,6
2013/7/16 17:02,1.3,6,1.4,8,2.5,6
2013/7/16 17:03,1.3,6,1.3,7,2.9,5
2013/7/16 17:04,1.5,6,1.5,6,2.7,6
2013/7/16 17:05,1.6,6,1.6,6,2.6,6
2013/7/16 17:06,1.7,6,1.7,6,2.9,5
2013/7/16 17:07,1.7,6,1.8,6,2.2,5
2013/7/16 17:08,1.7,6,1.7,6,2.1,4
2013/7/16 17:09,1.6,5,1.7,6,1.5,4
2013/7/16 17:10,1.4,5,1.6,6,0.9,3
2013/7/16 17:11,1.4,5,1.5,6,1.1,5
2013/7/16 17:12,1.3,4,1.4,6,0.9,1
2013/7/16 17:13,1.2,4,1.3,6,0.9,3
2013/7/16 17:14,1.1,4,1.2,6,1.3,3
2013/7/16 17:15,0.9,4,1,6,1,6
2013/7/16 17:16,0.8,3,0.9,6,1,3
2013/7/16 17:17,0.7,3,0.7,6,1.4,4
2013/7/16 17:18,0.7,3,0.7,6,1.4,3
2013/7/16 17:19,0.7,3,0.7,5,1.1,3
2013/7/16 17:20,0.8,3,0.8,5,1.6,2
2013/7/16 17:21,0.8,3,0.8,5,2.5,5
2013/7/16 17:22,0.9,4,0.9,4,1.9,6
2013/7/16 17:23,1,4,1,4,1.6,6
2013/7/16 17:24,1,4,1,4,0.9,6
2013/7/16 17:25,0.9,4,0.9,4,0.1,5
2013/7/16 17:26,0.8,4,0.9,4,0.3,3
2013/7/16 17:27,0.8,5,0.8,4,1.5,8
2013/7/16 17:28,0.9,5,0.9,4,2.4,9
2013/7/16 17:29,0.9,6,0.9,4,2.2,8
2013/7/16 17:30,0.9,6,0.9,4,1.9,6
2013/7/16 17:31,0.9,7,0.9,4,2,9
2013/7/16 17:32,0.8,7,0.9,4,1.6,8
2013/7/16 17:33,0.8,7,0.8,4,1,10
2013/7/16 17:34,0.9,7,0.9,4,3.1,8
2013/7/16 17:35,1.1,8,1.1,8,2.7,7
2013/7/16 17:36,1.2,8,1.2,8,2.2,8
2013/7/16 17:37,1.3,8,1.3,8,2.6,8
2013/7/16 17:38,1.3,8,1.3,8,2.1,9
2013/7/16 17:39,1.3,8,1.3,8,2.9,7
2013/7/16 17:40,1.4,8,1.4,8,2.5,9
2013/7/16 17:41,1.5,8,1.5,8,2.5,8
2013/7/16 17:42,1.5,8,1.5,8,1.9,9
2013/7/16 17:43,1.5,8,1.5,8,1.6,8
2013/7/16 17:44,1.4,8,1.5,8,1.4,9
2013/7/16 17:45,1.4,8,1.4,8,2.1,8
2013/7/16 17:46,1.4,8,1.4,8,2,7
2013/7/16 17:47,1.4,8,1.4,8,2,8
2013/7/16 17:48,1.4,9,1.4,8,1.5,9
2013/7/16 17:49,1.3,9,1.4,8,1.6,6
2013/7/16 17:50,1.2,8,1.3,8,1.9,7
2013/7/16 17:51,1.2,8,1.2,8,1.5,8
2013/7/16 17:52,1.1,8,1.2,8,1,8
2013/7/16 17:53,1.1,8,1.1,8,0.9,7
2013/7/16 17:54,1.1,8,1.1,8,1.4,6
2013/7/16 17:55,1,7,1.1,8,1.5,4
2013/7/16 17:56,1,7,1,8,1.3,5
2013/7/16 17:57,0.9,7,1,8,1.4,5
2013/7/16 17:58,1,6,1,9,2.2,6
2013/7/16 17:59,1,6,1,8,1.9,6
2013/7/16 18:00,1,6,1,8,2,6
2013/7/16 18:01,1,6,1,8,1.4,6
2013/7/16 18:02,1,6,1,8,1,6
2013/7/16 18:03,1,6,1,8,1.4,6
2013/7/16 18:04,1,6,1,8,0.9,7
2013/7/16 18:05,0.9,6,0.9,7,0.6,6
2013/7/16 18:06,0.9,6,0.9,7,0.8,15
2013/7/16 18:07,0.9,5,0.9,6,1.9,15
2013/7/16 18:08,0.9,5,0.9,6,2.2,15
2013/7/16 18:09,0.8,4,0.9,6,2,15
2013/7/16 18:10,0.8,3,0.8,6,1.8,16
2013/7/16 18:11,0.8,2,0.8,6,1.5,16
2013/7/16 18:12,0.8,1,0.8,6,1.5,15
2013/7/16 18:13,0.9,16,0.9,6,2.2,15
2013/7/16 18:14,1,16,1,16,2.1,16
2013/7/16 18:15,1.1,16,1.1,16,2.1,15
2013/7/16 18:16,1.1,16,1.1,16,2.2,16
2013/7/16 18:17,1.1,16,1.1,16,2.4,15
2013/7/16 18:18,1.2,16,1.2,16,2.7,16
2013/7/16 18:19,1.2,16,1.2,16,2.7,16
2013/7/16 18:20,1.3,16,1.3,16,2.5,16
2013/7/16 18:21,1.4,16,1.4,16,1.8,16
2013/7/16 18:22,1.4,16,1.4,16,1.8,16
2013/7/16 18:23,1.4,16,1.5,16,2.2,16
2013/7/16 18:24,1.5,16,1.5,16,2.4,15
2013/7/16 18:25,1.5,16,1.5,16,2.6,14
2013/7/16 18:26,1.6,16,1.6,16,2.2,15
2013/7/16 18:27,1.6,16,1.6,16,2,16
2013/7/16 18:28,1.6,16,1.6,16,2.2,15
2013/7/16 18:29,1.6,15,1.6,16,2.5,16
2013/7/16 18:30,1.5,15,1.6,16,2.5,16
2013/7/16 18:31,1.6,15,1.6,16,2.7,15
2013/7/16 18:32,1.6,15,1.6,16,2.5,15
2013/7/16 18:33,1.6,15,1.6,16,2.2,16
2013/7/16 18:34,1.6,15,1.6,16,2.2,1
2013/7/16 18:35,1.6,15,1.6,16,2.6,15
2013/7/16 18:36,1.5,15,1.6,16,2.1,15
2013/7/16 18:37,1.5,15,1.6,16,2.4,15
2013/7/16 18:38,1.5,16,1.5,16,1.6,16
2013/7/16 18:39,1.4,16,1.5,15,1.4,16
2013/7/16 18:40,1.4,16,1.4,15,1,1
2013/7/16 18:41,1.3,16,1.4,15,2.1,2
2013/7/16 18:42,1.3,16,1.3,15,1.8,2
2013/7/16 18:43,1.3,16,1.3,15,2,2
2013/7/16 18:44,1.2,16,1.3,15,1.9,2
2013/7/16 18:45,1.2,16,1.2,15,1.5,1
2013/7/16 18:46,1.1,1,1.2,15,1.5,1
2013/7/16 18:47,1.1,1,1.1,15,1.8,15
2013/7/16 18:48,1.1,1,1.1,16,2.1,15
2013/7/16 18:49,1.2,1,1.2,16,2.6,15
2013/7/16 18:50,1.3,16,1.3,16,3,15
2013/7/16 18:51,1.4,16,1.4,16,2.9,16
2013/7/16 18:52,1.5,16,1.5,16,3.2,15
2013/7/16 18:53,1.6,16,1.6,16,3,15
2013/7/16 18:54,1.7,16,1.7,16,3.1,15
2013/7/16 18:55,1.8,16,1.8,16,3.2,15
2013/7/16 18:56,2,15,2,15,3.2,16
2013/7/16 18:57,2.1,15,2.1,15,3.3,16
2013/7/16 18:58,2.2,15,2.2,15,3.1,16
2013/7/16 18:59,2.2,15,2.2,15,3,16
2013/7/16 19:00,2.2,15,2.2,15,2.9,15
2013/7/16 19:01,2.2,16,2.2,15,2.5,16
2013/7/16 19:02,2.2,16,2.2,15,3,16
2013/7/16 19:03,2.1,16,2.2,15,1.8,1
2013/7/16 19:04,2,16,2.1,15,2,1
2013/7/16 19:05,1.9,16,2,15,1.1,15
2013/7/16 19:06,1.6,16,1.8,15,1.1,16
2013/7/16 19:07,1.5,16,1.6,15,1.1,15
2013/7/16 19:08,1.3,16,1.5,15,0.9,2
2013/7/16 19:09,1.1,1,1.3,15,0.9,2
2013/7/16 19:10,1,1,1.1,15,0.9,2
2013/7/16 19:11,0.9,1,1,16,1.6,1
2013/7/16 19:12,0.9,1,0.9,16,2,1
2013/7/16 19:13,0.8,1,0.8,16,1.5,16
2013/7/16 19:14,0.7,1,0.8,16,1.5,3
2013/7/16 19:15,0.8,2,0.8,16,1.9,4
2013/7/16 19:16,0.8,2,0.8,16,1.3,5
2013/7/16 19:17,0.8,3,0.8,16,1.4,5
2013/7/16 19:18,0.9,3,0.9,16,1.9,4
2013/7/16 19:19,1,3,1,1,1.6,3
2013/7/16 19:20,1,4,1,1,2.2,4
2013/7/16 19:21,1.1,4,1.1,4,2,5
2013/7/16 19:22,1,4,1.1,4,2,5
2013/7/16 19:23,1.1,4,1.1,4,2.9,4
2013/7/16 19:24,1.2,4,1.2,4,2.5,3
2013/7/16 19:25,1.3,4,1.3,4,2.5,5
2013/7/16 19:26,1.4,4,1.4,4,2,5
2013/7/16 19:27,1.4,4,1.4,4,2.1,3
2013/7/16 19:28,1.4,4,1.4,4,1.4,3
2013/7/16 19:29,1.4,4,1.4,4,1.8,4
2013/7/16 19:30,1.4,4,1.4,4,2,4
2013/7/16 19:31,1.4,3,1.4,4,1.8,3
2013/7/16 19:32,1.4,3,1.4,4,2,3
2013/7/16 19:33,1.4,3,1.4,4,1.9,3
2013/7/16 19:34,1.3,3,1.3,4,2,2
2013/7/16 19:35,1.2,3,1.3,4,1.5,3
2013/7/16 19:36,1.2,3,1.2,4,1.9,3
2013/7/16 19:37,1.2,3,1.2,4,1.9,4
2013/7/16 19:38,1.3,3,1.3,4,1.9,3
2013/7/16 19:39,1.2,3,1.3,4,1,1
2013/7/16 19:40,1.2,3,1.2,3,1.9,3
2013/7/16 19:41,1.2,3,1.2,3,1.6,3
2013/7/16 19:42,1.2,3,1.2,3,2,4
2013/7/16 19:43,1.1,2,1.2,3,2.1,1
2013/7/16 19:44,1.2,2,1.2,3,2,3
2013/7/16 19:45,1.2,2,1.2,3,1.8,4
2013/7/16 19:46,1.2,2,1.2,3,1.6,1
2013/7/16 19:47,1.2,2,1.2,3,1.6,1
2013/7/16 19:48,1.1,2,1.2,3,1.3,3
2013/7/16 19:49,1.2,2,1.2,3,1.9,2
2013/7/16 19:50,1.2,2,1.2,3,2.2,3
2013/7/16 19:51,1.3,2,1.3,2,2.2,3
2013/7/16 19:52,1.3,2,1.3,2,2.1,2
2013/7/16 19:53,1.3,2,1.3,2,2,2
2013/7/16 19:54,1.2,2,1.3,2,1.8,4
2013/7/16 19:55,1.2,2,1.2,2,1.8,4
2013/7/16 19:56,1.2,2,1.2,2,1.4,3
2013/7/16 19:57,1.2,2,1.2,2,1.8,2
2013/7/16 19:58,1.2,2,1.2,2,1.4,16
2013/7/16 19:59,1.2,2,1.2,2,1.5,2
2013/7/16 20:00,1.2,2,1.2,2,2,1
2013/7/16 20:01,1.1,2,1.1,2,1.5,1
2013/7/16 20:02,1,2,1.1,2,1.5,2
2013/7/16 20:03,1,2,1,2,1.4,1
2013/7/16 20:04,1,2,1,2,1.5,2
2013/7/16 20:05,0.9,2,1,2,1,2
2013/7/16 20:06,0.8,2,0.9,2,0.3,5
2013/7/16 20:07,0.7,3,0.8,2,0.3,1
2013/7/16 20:08,0.7,3,0.7,2,1.1,4
2013/7/16 20:09,0.6,3,0.7,2,1.1,3
2013/7/16 20:10,0.7,3,0.7,2,1.4,3
2013/7/16 20:11,0.6,3,0.7,2,1.1,1
2013/7/16 20:12,0.6,4,0.7,2,1.3,4
2013/7/16 20:13,0.6,4,0.6,2,0.4,4
2013/7/16 20:14,0.5,5,0.5,2,0.8,4
2013/7/16 20:15,0.5,4,0.5,2,1.1,5
2013/7/16 20:16,0.6,4,0.6,2,1,4
2013/7/16 20:17,0.6,4,0.6,3,0.5,3
2013/7/16 20:18,0.5,4,0.6,3,0.5,16
2013/7/16 20:19,0.5,4,0.5,3,0.8,1
2013/7/16 20:20,0.4,4,0.5,3,0.6,2
2013/7/16 20:21,0.4,3,0.4,4,0.5,14
2013/7/16 20:22,0.3,3,0.4,4,0.4,14
2013/7/16 20:23,0.3,3,0.3,4,0.6,5
2013/7/16 20:24,0.3,2,0.3,4,0.9,13
2013/7/16 20:25,0.3,1,0.4,4,1,13
2013/7/16 20:26,0.4,16,0.4,4,1,13
2013/7/16 20:27,0.4,15,0.4,4,0.8,13
2013/7/16 20:28,0.4,15,0.4,4,1,14
2013/7/16 20:29,0.5,14,0.5,4,1.4,14
2013/7/16 20:30,0.6,14,0.6,14,2.1,15
2013/7/16 20:31,0.7,14,0.7,14,2.1,16
2013/7/16 20:32,0.8,14,0.8,14,1.5,15
2013/7/16 20:33,0.8,14,0.8,14,1.1,14
2013/7/16 20:34,0.8,14,0.8,14,0.3,14
2013/7/16 20:35,0.7,14,0.8,14,0.1,1
2013/7/16 20:36,0.6,15,0.7,14,0.4,4
2013/7/16 20:37,0.7,15,0.7,14,1,3
2013/7/16 20:38,0.6,16,0.7,14,0.9,2
2013/7/16 20:39,0.6,16,0.6,14,0.9,1
2013/7/16 20:40,0.5,16,0.6,14,1.4,1
2013/7/16 20:41,0.5,1,0.5,14,1.8,16
2013/7/16 20:42,0.5,1,0.6,14,1.6,1
2013/7/16 20:43,0.6,1,0.6,14,2.6,16
2013/7/16 20:44,0.7,1,0.7,14,2.2,16
2013/7/16 20:45,0.9,1,0.9,1,2.9,1
2013/7/16 20:46,1.1,16,1.1,16,3,16
2013/7/16 20:47,1.3,16,1.3,16,3.2,16
2013/7/16 20:48,1.5,16,1.5,16,3.2,16
2013/7/16 20:49,1.6,16,1.6,16,2.2,16
2013/7/16 20:50,1.7,16,1.7,16,2.6,16
2013/7/16 20:51,1.7,16,1.7,16,2.7,16
2013/7/16 20:52,1.7,16,1.7,16,2,1
2013/7/16 20:53,1.7,16,1.7,16,2.7,1
2013/7/16 20:54,1.8,16,1.8,16,2.9,1
2013/7/16 20:55,1.7,16,1.8,16,2.2,16
2013/7/16 20:56,1.7,16,1.7,16,2.6,15
2013/7/16 20:57,1.7,16,1.7,16,2.9,16
2013/7/16 20:58,1.7,16,1.7,16,3.5,16
2013/7/16 20:59,1.8,16,1.8,16,3.6,16
2013/7/16 21:00,1.9,16,1.9,16,3.3,1
2013/7/16 21:01,2,16,2,16,3,1
2013/7/16 21:02,2,16,2,16,2.6,16
2013/7/16 21:03,2.1,16,2.1,16,2.6,16
2013/7/16 21:04,2.1,16,2.1,16,2.6,16
2013/7/16 21:05,2.2,16,2.2,16,2.7,16
2013/7/16 21:06,2.2,16,2.2,16,2.6,16
2013/7/16 21:07,2.1,16,2.2,16,2,1
2013/7/16 21:08,2.1,16,2.1,16,2.2,1
2013/7/16 21:09,1.9,16,2,16,2.1,16
2013/7/16 21:10,1.7,16,1.9,16,1.3,15
2013/7/16 21:11,1.7,16,1.7,16,3.2,16
2013/7/16 21:12,1.7,16,1.7,16,3.7,16
2013/7/16 21:13,1.8,16,1.8,16,4.1,16
2013/7/16 21:14,1.9,16,1.9,16,3,16
2013/7/16 21:15,1.9,16,1.9,16,3.1,16
2013/7/16 21:16,1.9,16,1.9,16,2.6,16
2013/7/16 21:17,1.9,16,1.9,16,2,16
2013/7/16 21:18,1.8,16,1.9,16,1.8,16
2013/7/16 21:19,1.9,16,1.9,16,2.2,16
2013/7/16 21:20,2,16,2,16,2.1,1
2013/7/16 21:21,2,16,2,16,2.1,16
2013/7/16 21:22,1.9,16,2,16,2.4,15
2013/7/16 21:23,1.8,16,1.9,16,2.4,16
2013/7/16 21:24,1.8,16,1.8,16,2.7,16
2013/7/16 21:25,1.8,16,1.8,16,2.9,1
2013/7/16 21:26,1.8,16,1.8,16,3,1
2013/7/16 21:27,1.8,16,1.8,16,3,15
2013/7/16 21:28,1.9,16,1.9,16,3.1,15
2013/7/16 21:29,1.9,16,1.9,16,2.9,16
2013/7/16 21:30,1.9,16,1.9,16,2.4,16
2013/7/16 21:31,2,16,2,16,2.7,16
2013/7/16 21:32,2,16,2,16,3,16
2013/7/16 21:33,2,16,2.1,16,3.3,15
2013/7/16 21:34,2,16,2.1,16,2.9,14
2013/7/16 21:35,2,16,2,16,2.5,16
2013/7/16 21:36,1.9,16,2,16,2.2,16
2013/7/16 21:37,1.9,16,2,16,2.2,16
2013/7/16 21:38,1.9,16,1.9,16,2.5,16
2013/7/16 21:39,1.8,16,1.9,16,2,16
2013/7/16 21:40,1.8,16,1.8,16,2.5,16
2013/7/16 21:41,1.8,16,1.8,16,2.7,15
2013/7/16 21:42,1.8,16,1.8,16,3.1,16
2013/7/16 21:43,1.7,16,1.8,16,2.2,16
2013/7/16 21:44,1.7,16,1.7,16,2.7,16
2013/7/16 21:45,1.7,16,1.7,16,2.2,15
2013/7/16 21:46,1.6,16,1.7,16,2.5,1
2013/7/16 21:47,1.6,16,1.6,16,2.2,16
2013/7/16 21:48,1.6,16,1.6,16,2.4,16
2013/7/16 21:49,1.6,16,1.6,16,2.4,16
2013/7/16 21:50,1.6,16,1.6,16,2.4,1
2013/7/16 21:51,1.5,16,1.6,16,2.2,1
2013/7/16 21:52,1.5,16,1.5,16,1.8,1
2013/7/16 21:53,1.5,16,1.5,16,2.1,16
2013/7/16 21:54,1.5,16,1.5,16,2.2,16
2013/7/16 21:55,1.5,16,1.5,16,2.5,15
2013/7/16 21:56,1.5,16,1.5,16,2.7,15
2013/7/16 21:57,1.6,16,1.6,16,3.6,16
2013/7/16 21:58,1.7,16,1.7,16,3.1,16
2013/7/16 21:59,1.9,16,1.9,16,3.6,15
2013/7/16 22:00,2,16,2,16,3.5,15
2013/7/16 22:01,2.1,16,2.1,16,3.6,16
2013/7/16 22:02,2.2,16,2.2,16,3.5,15
2013/7/16 22:03,2.3,15,2.3,16,3.5,15
2013/7/16 22:04,2.4,15,2.4,15,3.2,15
2013/7/16 22:05,2.4,15,2.4,15,3.1,15
2013/7/16 22:06,2.5,15,2.5,15,3.8,15
2013/7/16 22:07,2.5,15,2.5,15,3.5,15
2013/7/16 22:08,2.4,15,2.5,15,2.6,16
2013/7/16 22:09,2.4,15,2.4,15,3.1,16
2013/7/16 22:10,2.3,15,2.3,15,3,15
2013/7/16 22:11,2.1,15,2.2,15,2.1,16
2013/7/16 22:12,2,15,2.1,15,1.8,16
2013/7/16 22:13,1.8,15,2,15,1.5,1
2013/7/16 22:14,1.7,16,1.8,15,2,1
2013/7/16 22:15,1.7,16,1.7,15,2.1,1
2013/7/16 22:16,1.5,16,1.6,15,1.5,1
2013/7/16 22:17,1.4,16,1.5,15,1.5,1
2013/7/16 22:18,1.3,16,1.4,15,1.3,16
2013/7/16 22:19,1.2,16,1.3,15,2,16
2013/7/16 22:20,1.2,16,1.2,15,1.6,1
2013/7/16 22:21,1.2,1,1.2,15,2.1,1
2013/7/16 22:22,1.2,1,1.2,15,1.9,16
2013/7/16 22:23,1.3,1,1.3,15,1.8,2
2013/7/16 22:24,1.3,1,1.3,16,2.1,16
2013/7/16 22:25,1.4,1,1.4,16,2.1,15
2013/7/16 22:26,1.4,16,1.4,16,2.1,16
2013/7/16 22:27,1.3,16,1.4,16,1.4,16
2013/7/16 22:28,1.4,1,1.4,1,1.8,16
2013/7/16 22:29,1.4,1,1.4,1,2,2
2013/7/16 22:30,1.4,1,1.4,1,2.1,16
2013/7/16 22:31,1.4,1,1.4,1,2.1,16
2013/7/16 22:32,1.5,1,1.5,1,2.1,1
2013/7/16 22:33,1.5,16,1.5,1,2,16
2013/7/16 22:34,1.5,16,1.5,1,2.6,1
2013/7/16 22:35,1.5,1,1.5,1,2.6,1
2013/7/16 22:36,1.6,1,1.6,1,3,1
2013/7/16 22:37,1.7,1,1.7,1,2.4,16
2013/7/16 22:38,1.8,1,1.8,1,2.9,16
2013/7/16 22:39,1.8,1,1.8,1,3.3,16
2013/7/16 22:40,1.9,1,1.9,1,3,16
2013/7/16 22:41,1.9,1,1.9,1,3.1,16
2013/7/16 22:42,2,16,2,1,3.6,16
2013/7/16 22:43,2,16,2,1,3.2,16
2013/7/16 22:44,2,16,2,1,3,16
2013/7/16 22:45,2,16,2,1,2.9,1
2013/7/16 22:46,2,16,2,1,2.6,2
2013/7/16 22:47,2,16,2,1,2.9,1
2013/7/16 22:48,2,16,2,1,3.1,1
2013/7/16 22:49,2,16,2,1,2.7,1
2013/7/16 22:50,1.9,16,2,1,2.5,1
2013/7/16 22:51,1.9,16,1.9,1,2.4,15
2013/7/16 22:52,1.8,16,1.9,16,2.9,16
2013/7/16 22:53,1.9,16,1.9,16,3,16
2013/7/16 22:54,1.9,16,1.9,16,3.1,16
2013/7/16 22:55,1.8,16,1.9,16,2.7,16
2013/7/16 22:56,1.8,16,1.8,16,3.2,16
2013/7/16 22:57,1.8,16,1.8,16,2.7,15
2013/7/16 22:58,1.9,16,1.9,16,3.1,16
2013/7/16 22:59,1.9,16,1.9,16,2.9,15
2013/7/16 23:00,2,16,2,16,2.7,16
2013/7/16 23:01,2.1,16,2.1,16,3.1,16
2013/7/16 23:02,2.1,16,2.1,16,2.6,15
2013/7/16 23:03,2.1,16,2.1,16,2.6,15
2013/7/16 23:04,2.1,16,2.1,16,2.9,16
2013/7/16 23:05,2,16,2.1,16,2.9,16
2013/7/16 23:06,2,16,2,16,2.7,1
2013/7/16 23:07,2,16,2,16,2.4,14
2013/7/16 23:08,1.9,16,1.9,16,3,16
2013/7/16 23:09,1.9,16,1.9,16,2.7,15
2013/7/16 23:10,1.9,16,1.9,16,3.2,16
2013/7/16 23:11,1.9,16,1.9,16,3.5,16
2013/7/16 23:12,1.9,16,1.9,16,3.7,15
2013/7/16 23:13,2,16,2,16,3.5,15
2013/7/16 23:14,2,16,2.1,16,3.5,16
2013/7/16 23:15,2.1,16,2.1,16,2.6,16
2013/7/16 23:16,2.1,16,2.1,16,3,1
2013/7/16 23:17,2.1,16,2.1,16,2.4,16
2013/7/16 23:18,2,16,2.1,16,2.1,16
2013/7/16 23:19,2.1,16,2.1,16,2.4,16
2013/7/16 23:20,1.9,16,2.1,16,1.8,16
2013/7/16 23:21,1.8,16,1.9,16,1.9,16
2013/7/16 23:22,1.7,16,1.8,16,2.6,1
2013/7/16 23:23,1.5,16,1.7,16,2.2,16
2013/7/16 23:24,1.5,16,1.5,16,2.4,15
2013/7/16 23:25,1.5,16,1.5,16,2.4,16
2013/7/16 23:26,1.5,16,1.5,16,2.5,16
2013/7/16 23:27,1.5,16,1.5,16,2.4,15
2013/7/16 23:28,1.6,16,1.6,16,2.9,15
2013/7/16 23:29,1.6,16,1.6,16,3,16
2013/7/16 23:30,1.7,16,1.7,16,2.7,16
2013/7/16 23:31,1.8,16,1.8,16,3.1,15
2013/7/16 23:32,1.8,16,1.8,16,2.5,16
2013/7/16 23:33,1.8,16,1.9,16,2.9,15
2013/7/16 23:34,1.8,16,1.8,16,2.5,16
2013/7/16 23:35,1.8,16,1.8,16,2.2,16
2013/7/16 23:36,1.8,16,1.8,16,2,16
2013/7/16 23:37,1.8,16,1.8,16,2.7,16
2013/7/16 23:38,1.8,16,1.8,16,2.9,15
2013/7/16 23:39,1.9,16,1.9,16,3.5,16
2013/7/16 23:40,1.9,16,1.9,16,3.1,16
2013/7/16 23:41,1.9,16,1.9,16,3,16
2013/7/16 23:42,1.9,16,1.9,16,2.7,16
2013/7/16 23:43,2,16,2,16,2.7,15
2013/7/16 23:44,2,16,2,16,2.9,16
2013/7/16 23:45,2,16,2,16,2.9,16
2013/7/16 23:46,2.1,16,2.1,16,3,16
2013/7/16 23:47,2.2,15,2.2,16,3.3,16
2013/7/16 23:48,2.2,15,2.2,16,3.3,16
2013/7/16 23:49,2.2,15,2.2,16,3.2,15
2013/7/16 23:50,2.2,15,2.3,15,3.3,16
2013/7/16 23:51,2.2,16,2.2,15,2.7,15
2013/7/16 23:52,2.2,16,2.2,15,2.6,16
2013/7/16 23:53,2.1,16,2.2,15,2.4,16
2013/7/16 23:54,2.2,16,2.2,15,2.5,16
2013/7/16 23:55,2.2,15,2.2,15,2.7,16
2013/7/16 23:56,2.1,16,2.2,15,3,15
2013/7/16 23:57,2.1,16,2.1,15,2.6,15
2013/7/16 23:58,1.9,16,2,15,2.4,15
2013/7/16 23:59,1.8,15,1.9,15,1.8,15
2013/7/17 0:00,1.6,15,1.8,15,2,15
